Regional Weather Roundup
Issued by NWS

Home | Current Version | Previous Version | Graphics & Text | Print | Product List | Glossary On
Versions: 1 2 3 4 5 6 7 8 9 10 11 12 13 14 15 16 17 18 19 20 21 22 23 24 25 26 27 28 29 30 31 32 33 34 35 36 37 38 39 40 41 42 43 44 45 46 47 48 49 50
990
ASUS44 KLIX 190512
RWRLA
LOUISIANA WEATHER ROUNDUP
NATIONAL WEATHER SERVICE NEW ORLEANS LA
1200 AM CDT SUN APR 19 2015

NOTE: "FAIR" INDICATES FEW OR NO CLOUDS BELOW 12,000 FEET WITH NO
      SIGNIFICANT WEATHER AND/OR OBSTRUCTIONS TO VISIBILITY.
      SKY/WX - SKY CONDITION AND SIGNIFICANT WEATHER.
      TMP - AIR TEMPERATURE.    DP   - DEWPOINT TEMPERATURE.
      RH  - RELATIVE HUMIDITY.  PRES - PRESSURE.
      HX  - HEAT INDEX.         WCI  - WIND CHILL INDEX.

*  THESE STATIONS ARE NOT NWS OR FAA STATIONS AND ARE NOT UNDER
   NWS QUALITY CONTROL.

LAZ040-048-061>063-065-066-069-190600-
SOUTHEAST LOUISIANA

CITY           SKY/WX    TMP DP  RH WIND       PRES   REMARKS
N.O. AUDUBON     N/A     73  70  92 MISG        N/A
N.O. INTL ARPT MOCLDY    71  67  87 S8        29.80S
N.O. LAKEFRONT PTCLDY    73  68  84 S10       29.80S
SLIDELL        PTCLDY    71  70  96 S10       29.79S
BATON ROUGE    PTCLDY    70  69  97 S6        29.80S
BOOTHVILLE     CLOUDY    70  68  93 SE9       29.80F
BELLE CHASSE   MOCLDY    71  67  87 SE14G21   29.79R
BOGALUSA*        N/A     73  67  83 SW10      29.82R
GALLIANO*      PTCLDY    69  68  96 SE5       29.80F
NEW ROADS*     MOCLDY    71  69  95 S3        29.79F
GONZALES*      CLOUDY    72  72 100 S8        29.81S
HAMMOND*       CLOUDY    72  68  88 S5        29.82S
HOUMA*         PTCLDY    71  69  92 SE9       29.81R
PORT FOURCHON* NOT AVBL

$$

LAZ041-044-053-054-190600-
SOUTHWEST LOUISIANA

CITY           SKY/WX    TMP DP  RH WIND       PRES   REMARKS
LAKE CHARLES   MOCLDY    68  67  96 S3        29.79R FOG
LAFAYETTE      MOCLDY    72  70  93 SW6       29.81R
PATTERSON      CLOUDY    72  68  88 S8        29.82S
SALT POINT       N/A     71  70  96 VRB3      29.79S
NEW IBERIA     PTCLDY    71  68  90 SE6       29.80F
CHENAULT AIRPK CLOUDY    69  68  98 S6        29.79S FOG

$$

LAZ027-028-190600-
CENTRAL LOUISIANA

CITY           SKY/WX    TMP DP  RH WIND       PRES   REMARKS
FORT POLK      CLOUDY    68  68 100 S5        29.76S
ALEXANDRIA INT CLOUDY    67  66  97 CALM      29.75F
ALEXANDRIA     MOCLDY    67  66  97 CALM      29.76F

$$

LAZ001-002-190600-
NORTHWEST LOUISIANA

CITY           SKY/WX    TMP DP  RH WIND       PRES   REMARKS
SHREVEPORT     CLOUDY    66  65  96 SE6       29.76F THUNDER
BARKSDALE AFB  PTCLDY    63  63 100 SE2       29.75F
DTN SHREVEPORT PTCLDY    64  63  96 E3        29.75F

$$

LAZ014-016-190600-
NORTHEAST LOUISIANA

CITY           SKY/WX    TMP DP  RH WIND       PRES   REMARKS
MONROE         CLOUDY    67  67 100 CALM      29.77F
TALLULAH       CLOUDY    67  65  93 CALM      29.78S

$$




USA.gov is the U.S. government's official web portal to all federal, state and local government web resources and services.